Keokuk, IA

7:56 AM CDT on August 27, 2016 (GMT -0500)
Keokuk Municipal

Weather History for KEOK - March, 2013

Change the Weather History Date:

Sunday, March 10, 2013

  Actual Average Record
Temperature  
Mean Temperature 44 °F -  
Max Temperature 50 °F 48 °F 74 °F (1955)
Min Temperature 39 °F 28 °F 0 °F (1934)
Degree Days  
Heating Degree Days 20    
Moisture  
Dew Point 39 °F    
Average Humidity 77    
Maximum Humidity 82    
Minimum Humidity 71    
Precipitation  
Precipitation 1.00 in - - ()
Sea Level Pressure  
Sea Level Pressure 29.67 in    
Wind  
Wind Speed 5 mph (South)    
Max Wind Speed 14 mph    
Max Gust Speed 18 mph    
Visibility 2 miles    
Events Rain    
Averages and records for this station are not official NWS values.
T = Trace of Precipitation, MM = Missing Value Source: NWS Daily Summary

Daily Weather History Graph

Daily Weather History Graph

Search for Another Location

Airport or City:

Trip Planner

Search our weather history database for the weather conditions in past years. The results will help you decide how hot, cold, wet, or windy it might be!

Date:

Astronomy

Mar. 10, 2013 Rise Set
Actual Time 7:24 AM CDT 7:07 PM CDT
Civil Twilight 6:57 AM CDT 7:34 PM CDT
Nautical Twilight 6:26 AM CDT 8:06 PM CDT
Astronomical Twilight 5:54 AM CDT 8:38 PM CDT
Moon 6:25 AM CDT (3/10) 6:15 PM CDT (3/10)
Length of Visible Light 12h 36m
Length of Day
11h 42m
Waning Crescent, 2% of the Moon is Illuminated
Mar 10
Waning Crescent
Mar 11
New
Mar 19
First Quarter
Mar 27
Full
Apr 2
Last Quarter

Hourly Weather History & Observations

Time (CDT) Temp. Windchill Dew Point Humidity Pressure Visibility Wind Dir Wind Speed Gust Speed Precip Events Conditions
12:15 AM 44.6 °F - 37.4 °F 76% 29.75 in 0.2 mi Calm Calm - 0.07 in Rain Rain
12:35 AM 44.6 °F 43.1 °F 37.4 °F 76% 29.75 in 0.2 mi East 3.5 mph - 0.18 in Rain Heavy Rain
12:55 AM 44.6 °F - 37.4 °F 76% 29.74 in 0.2 mi Calm Calm - 0.26 in Rain Heavy Rain
1:15 AM 44.6 °F 43.1 °F 37.4 °F 76% 29.75 in 0.2 mi ESE 3.5 mph - 0.02 in Rain Rain
1:35 AM 44.6 °F 43.1 °F 37.4 °F 76% 29.74 in 0.2 mi East 3.5 mph - 0.09 in Rain Rain
1:55 AM 44.6 °F 43.1 °F 37.4 °F 76% 29.73 in 0.2 mi East 3.5 mph - 0.14 in Rain Rain
3:15 AM 44.6 °F 41.4 °F 37.4 °F 76% 29.73 in 0.2 mi SSE 5.8 mph - 0.05 in Rain Heavy Rain
3:35 AM 44.6 °F 40.2 °F 37.4 °F 76% 29.72 in 1.0 mi SE 8.1 mph - 0.07 in Rain Light Rain
3:55 AM 44.6 °F 40.7 °F 37.4 °F 76% 29.70 in 1.5 mi ESE 6.9 mph - 0.09 in Rain Light Rain
4:15 AM 42.8 °F 37.0 °F 35.6 °F 76% 29.65 in 0.5 mi ESE 10.4 mph - N/A Rain Rain
4:35 AM 44.6 °F 39.7 °F 37.4 °F 76% 29.66 in 3.0 mi SE 9.2 mph - N/A   Haze
4:55 AM 46.4 °F 42.9 °F 39.2 °F 76% 29.67 in 5.0 mi SE 6.9 mph - N/A   Haze
5:15 AM 44.6 °F 39.7 °F 37.4 °F 76% 29.67 in 5.0 mi SE 9.2 mph - N/A   Haze
5:35 AM 44.6 °F 42.2 °F 37.4 °F 76% 29.66 in 4.0 mi SE 4.6 mph - N/A   Haze
5:55 AM 44.6 °F 41.4 °F 37.4 °F 76% 29.66 in 2.5 mi SE 5.8 mph - N/A   Haze
6:15 AM 44.6 °F 41.4 °F 37.4 °F 76% 29.64 in 1.0 mi ESE 5.8 mph - N/A   Haze
6:35 AM 44.6 °F - 37.4 °F 76% 29.67 in 1.5 mi Calm Calm - N/A   Haze
7:35 AM 48.2 °F - 42.8 °F 82% 29.69 in 3.0 mi SSE 8.1 mph - 0.01 in   Haze
7:55 AM 48.2 °F - 42.8 °F 82% 29.69 in 4.0 mi SSE 5.8 mph - 0.01 in   Haze
8:15 AM 48.2 °F - 42.8 °F 82% 29.68 in 4.0 mi SSE 8.1 mph - N/A   Haze
8:35 AM 48.2 °F - 42.8 °F 82% 29.67 in 4.0 mi SE 6.9 mph - N/A   Haze
8:55 AM 48.2 °F - 42.8 °F 82% 29.69 in 4.0 mi SSE 8.1 mph - N/A   Haze
9:15 AM 48.2 °F - 42.8 °F 82% 29.71 in 3.0 mi South 5.8 mph - N/A Rain Light Rain
9:55 AM 50.0 °F - 42.8 °F 76% 29.70 in 3.0 mi South 4.6 mph - 0.02 in Rain Light Rain
10:15 AM 50.0 °F - 42.8 °F 76% 29.68 in 1.5 mi Calm Calm - 0.02 in Rain Light Rain
10:35 AM 48.2 °F - 42.8 °F 82% 29.68 in 0.2 mi Calm Calm - 0.02 in Rain Light Rain
10:55 AM 48.2 °F - 42.8 °F 82% 29.68 in 0.2 mi Calm Calm - 0.03 in Rain Rain
11:15 AM 50.0 °F - 42.8 °F 76% 29.71 in 1.8 mi SSW 13.8 mph - 0.01 in Rain Light Rain
11:35 AM 50.0 °F - 42.8 °F 76% 29.71 in 2.5 mi SSW 13.8 mph 18.4 mph 0.04 in Rain Rain
11:55 AM 50.0 °F - 42.8 °F 76% 29.70 in 3.0 mi SSW 9.2 mph - 0.07 in Rain Light Rain
12:15 PM 48.2 °F - 42.8 °F 82% 29.68 in 5.0 mi SSW 6.9 mph - 0.01 in Rain Light Rain
12:35 PM 50.0 °F - 42.8 °F 76% 29.68 in 4.0 mi South 4.6 mph - 0.03 in Rain Light Rain
12:55 PM 48.2 °F - 42.8 °F 82% 29.68 in 3.0 mi SSW 4.6 mph - 0.04 in Rain Rain
1:15 PM 48.2 °F - 42.8 °F 82% 29.70 in 1.8 mi SW 8.1 mph - 0.05 in Rain Rain
1:35 PM 50.0 °F - 42.8 °F 76% 29.65 in 1.8 mi Calm Calm - 0.08 in Rain Rain
1:55 PM 50.0 °F - 42.8 °F 76% 29.67 in 2.5 mi SSW 6.9 mph - 0.10 in Rain Light Rain
2:15 PM 48.2 °F - 42.8 °F 82% 29.67 in 4.0 mi South 5.8 mph - 0.01 in Rain Light Rain
2:35 PM 48.2 °F - 42.8 °F 82% 29.64 in 1.0 mi SE 4.6 mph - 0.03 in Rain Rain
2:55 PM 50.0 °F - 42.8 °F 76% 29.60 in 0.2 mi East 9.2 mph - 0.04 in Rain Light Rain
3:15 PM 50.0 °F - 42.8 °F 76% 29.57 in 0.2 mi East 8.1 mph - 0.01 in   Haze
3:35 PM 48.2 °F - 41.0 °F 76% 29.55 in 0.5 mi East 9.2 mph - 0.01 in   Haze
3:55 PM 48.2 °F - 41.0 °F 76% 29.62 in 5.0 mi WSW 11.5 mph - 0.01 in Rain Rain
4:15 PM 48.2 °F - 39.2 °F 71% 29.63 in 7.0 mi WSW 9.2 mph - 0.03 in Rain Rain
4:35 PM 48.2 °F - 39.2 °F 71% 29.64 in 5.0 mi SW 6.9 mph - 0.05 in Rain Light Rain
4:55 PM 48.2 °F - 39.2 °F 71% 29.63 in 4.0 mi WSW 4.6 mph - 0.11 in Rain Rain
5:15 PM 48.2 °F - 41.0 °F 76% 29.63 in 2.5 mi WSW 5.8 mph - 0.01 in Rain Rain
5:35 PM 46.4 °F 44.3 °F 39.2 °F 76% 29.62 in 1.8 mi WSW 4.6 mph - 0.01 in   Haze
5:55 PM 46.4 °F 45.2 °F 39.2 °F 76% 29.62 in 0.2 mi WSW 3.5 mph - 0.02 in Rain Rain
6:15 PM 46.4 °F 45.2 °F 39.2 °F 76% 29.63 in 1.0 mi SW 3.5 mph - 0.02 in   Drizzle
6:35 PM 46.4 °F 43.5 °F 39.2 °F 76% 29.63 in 1.0 mi WSW 5.8 mph - 0.03 in   Drizzle
6:55 PM 46.4 °F 45.2 °F 39.2 °F 76% 29.64 in 2.0 mi SW 3.5 mph - 0.04 in   Light Drizzle
7:15 PM 46.4 °F - 39.2 °F 76% 29.64 in 0.5 mi Calm Calm - N/A   Haze
7:35 PM 46.4 °F - 39.2 °F 76% 29.64 in 0.5 mi Calm Calm - N/A   Haze
7:55 PM 46.4 °F - 39.2 °F 76% 29.64 in 0.2 mi Calm Calm - N/A   Haze
8:15 PM 46.4 °F 45.2 °F 39.2 °F 76% 29.65 in 0.2 mi South 3.5 mph - N/A   Haze
8:35 PM 46.4 °F - 37.4 °F 71% 29.65 in 0.2 mi Calm Calm - N/A   Haze
9:15 PM 46.4 °F - 39.2 °F 76% 29.65 in 0.2 mi Calm Calm - N/A   Haze
9:35 PM 46.4 °F - 39.2 °F 76% 29.65 in 0.2 mi Calm Calm - N/A   Haze
9:55 PM 44.6 °F 40.7 °F 37.4 °F 76% 29.66 in 0.5 mi West 6.9 mph - N/A   Drizzle
10:15 PM 42.8 °F 40.1 °F 35.6 °F 76% 29.67 in 1.2 mi West 4.6 mph - 0.01 in   Drizzle
10:35 PM 42.8 °F 38.6 °F 35.6 °F 76% 29.67 in 1.5 mi WSW 6.9 mph - 0.01 in Rain Rain
10:55 PM 41.0 °F 36.4 °F 33.8 °F 76% 29.67 in 1.5 mi WSW 6.9 mph - 0.02 in   Haze
11:15 PM 39.2 °F 31.6 °F 33.8 °F 81% 29.67 in 1.2 mi WSW 12.7 mph - N/A   Haze
11:35 PM 39.2 °F 31.2 °F 33.8 °F 81% 29.68 in 2.0 mi WSW 13.8 mph 18.4 mph N/A   Haze
11:55 PM 39.2 °F 31.6 °F 33.8 °F 81% 29.68 in 3.0 mi WSW 12.7 mph - N/A   Haze
12:15 AM 39.2 °F 31.2 °F 32.0 °F 75% 29.68 in 2.5 mi WSW 13.8 mph 18.4 mph N/A   Haze
12:35 AM 39.2 °F 32.0 °F 32.0 °F 75% 29.68 in 1.2 mi WSW 11.5 mph - N/A   Haze
12:55 AM 39.2 °F 31.2 °F 32.0 °F 75% 29.68 in 2.5 mi WSW 13.8 mph - N/A   Haze